[Iaude] MPEC B182: 2024 BE4 [a=2.00,e=0.49,i=6.8,H=26.3]
    mpec at marsden.cfa.harvard.edu 
    mpec at marsden.cfa.harvard.edu
       
    Wed Jan 31 17:58:23 EST 2024
    
    
  
M.P.E.C. 2024-B182                             Issued 2024 January 31, 22:56 UT
     The Minor Planet Electronic Circulars contain information on unusual
         minor planets, routine data on comets and natural satellites,
         and occasional editorial announcements.  They are published
    on behalf of Division F of the International Astronomical Union by the
          Minor Planet Center, Smithsonian Astrophysical Observatory,
                          Cambridge, MA 02138, U.S.A.
			  
             Prepared using the Tamkin Foundation Computer Network
                              MPC at CFA.HARVARD.EDU
            URL https://www.minorplanetcenter.net/    ISSN 1523-6714
                                    2024 BE4                                    
Observations:
     K24B04E*1C2024 01 19.23305708 05 30.293+32 06 10.22         20.89GVEB182G96
     K24B04E 1C2024 01 19.23824908 05 33.763+32 06 30.92         20.99GVEB182G96
     K24B04E 1C2024 01 19.24344608 05 37.280+32 06 50.69         20.79GVEB182G96
     K24B04E  C2024 01 19.32811808 06 33.829+32 12 10.87         20.79GVEB182V00
     K24B04E  C2024 01 19.33423708 06 37.908+32 12 33.34         21.18GVEB182V00
     K24B04E  C2024 01 19.34035408 06 41.929+32 12 55.22         21.03GVEB182V00
     K24B04E  C2024 01 19.34645908 06 45.997+32 13 17.33         20.83GVEB182V00
     K24B04E KC2024 01 19.38564508 07 11.856+32 15 34.27         21.42GVEB182I52
     K24B04E KC2024 01 19.38707108 07 12.839+32 15 39.31         21.03GVEB182I52
     K24B04E KC2024 01 19.38851708 07 13.768+32 15 44.17         21.06GVEB182I52
     K24B04E KC2024 01 19.38995108 07 14.736+32 15 49.39         21.57GVEB182I52
     K24B04E 7C2024 01 21.80094108 33 31.366+34 12 47.52               VEB182Z84
     K24B04E 7C2024 01 21.82185108 33 43.428+34 13 42.80         21.6 GVEB182Z84
     K24B04E 7C2024 01 31.83845609 38 42.048+36 52 33.99         22.4 GVEB182Z84
     K24B04E 7C2024 01 31.88948509 38 53.702+36 52 52.44         22.1 GVEB182Z84
Observer details:
G96 Mt. Lemmon Survey.  Observer A. R. Gibbs.  Measurers T. Beuden, V. F.
    Carvajal, D. Fay, J. B. Fazekas, D. C. Fuls, A. R. Gibbs, A. D. Grauer, H.
    Groeller, J. K. Hogan, R. A. Kowalski, S. M. Larson, G. J. Leonard, D.
    Rankin, R. L. Seaman, F. C. Shelly, K. W. Wierzchos.  1.5-m reflector +
    10K CCD.
I52 Steward Observatory, Mt. Lemmon Station.  Observer R. A. Kowalski.
    Measurers E. C. Beshore, D. Fay, J. B. Fazekas, D. C. Fuls, A. R. Gibbs,
    A. D. Grauer, H. Groeller, J. K. Hogan, R. A. Kowalski, S. M. Larson, G.
    J. Leonard, D. Rankin, R. L. Seaman, F. C. Shelly, K. W. Wierzchos.  1.0-m
    prime focus + CCD.
V00 Kitt Peak-Bok.  Observer R. A. Mastaler.  Measurers M. J. Brucker, C. E.
    Woodward, D. Fay, J. B. Fazekas, D. C. Fuls, A. R. Gibbs, H. Groeller, J.
    K. Hogan, R. A. Kowalski, S. M. Larson, C. Lejoly, G. J. Leonard, R. A.
    Mastaler, R. S. McMillan, D. Rankin, R. L. Seaman, A. Serrano, F. C.
    Shelly, K. W. Wierzchos.  2.25-m reflector + 4x4K mosaic CCD.
Z84 Calar Alto-Schmidt.  Observers F. Ocana, R. Kresken, M. Micheli, L.
    Conversi.  Measurers F. Ocana, M. Micheli.  0.8-m f/3 Schmidt + CCD.
Orbital elements:
2024 BE4                                                 Earth MOID = 0.0403 AU
Epoch 2023 Sept. 13.0 TT = JDT 2460200.5                MPC                     
M 323.26232              (2000.0)            P               Q                  
n   0.34744924     Peri.  340.12083     -0.04222343     -0.99303808             
a   2.0038958      Node   112.17135     +0.93197647     -0.07881125             
e   0.4939127      Incl.    6.81975     +0.36005143     +0.08754516             
P   2.84           H   26.38          G   0.15           U   8                  
Residuals in seconds of arc
240119 G96  0.2+  0.3-    240119 V00  0.2-  0.1-    240119 I52  0.1+  0.1+
240119 G96  0.2-  0.2+    240119 V00  0.1+  0.1+    240121 Z84  0.0   0.2-
240119 G96  0.0   0.3-    240119 I52  0.1-  0.1-    240121 Z84  0.0   0.0
240119 V00  0.2-  0.0     240119 I52  0.3+  0.0     240131 Z84  0.0   0.1-
240119 V00  0.2+  0.2+    240119 I52  0.1-  0.1-    240131 Z84  0.0   0.2+
Ephemeris:
2024 BE4                 a,e,i = 2.00, 0.49, 7                   q = 1.0141
Date    TT    R. A. (2000) Decl.     Delta      r    Elong.  Phase     V
2024 01 01    03 32 42.8 -13 03 26   0.05954 1.0155   121.2    55.9    22.3
...
2024 01 16    07 21 40.2 +27 38 55   0.05692 1.0400   171.2     8.3    20.8
...
2024 01 24    08 52 59.1 +35 22 45   0.08406 1.0648   162.6    16.0    22.0
...
2024 01 30    09 30 34.6 +36 45 33   0.1098  1.0881   158.8    19.1    22.7
2024 01 31    09 35 06.7 +36 50 19   0.1144  1.0923   158.5    19.3    22.8
2024 02 01    09 39 15.9 +36 53 24   0.1191  1.0967   158.2    19.5    22.9
...
2024 02 07    09 57 49.3 +36 47 01   0.1486  1.1246   157.2    19.9    23.5
...
2024 02 15    10 11 40.8 +35 58 02   0.1920  1.1663   156.6    19.7    24.1
...
2024 03 01    10 23 45.4 +33 21 37   0.2876  1.2550   153.6    20.5    25.2
A. U. Tomatic                (C) Copyright 2024 MPC           M.P.E.C. 2024-B182
    
    
More information about the Iaude
mailing list